EW3937 Weather Reports


Display with metric or nautical units.
time (UTC)temp
F
wind
direction
speed
MPH
gust
MPH
rain 1hr
in
rain 24hr
in
rain mn
in
humidity
%
barometer
mb
20260906190003 62 223 3.0 10.0 0.00 0.00 0.00 61 1013.7
20260906185503 62 227 3.0 10.0 0.00 0.00 0.00 59 1013.7
20260906185217 63 228 3.0 10.0 0.00 0.00 0.00 58 1013.7
20260906184503 63 233 2.0 8.0 0.00 0.00 0.00 60 1013.8
20260906184003 62 233 3.0 11.0 0.00 0.00 0.00 60 1013.9
20260906183503 62 230 3.0 11.0 0.00 0.00 0.00 62 1013.8
20260906183003 61 234 3.0 11.0 0.00 0.00 0.00 65 1013.9
20260906182503 60 236 3.0 11.0 0.00 0.00 0.00 66 1013.9
20260906182217 60 236 3.0 9.0 0.00 0.00 0.00 65 1013.9
20260906181503 60 248 3.0 9.0 0.00 0.00 0.00 64 1014.1
20260906181003 60 237 3.0 9.0 0.00 0.00 0.00 65 1014.2
20260906180718 60 228 3.0 8.0 0.00 0.00 0.00 64 1014.2
20260906180003 60 221 4.0 11.0 0.00 0.00 0.00 66 1014.2
20260906175503 60 223 4.0 11.0 0.00 0.00 0.00 66 1014.2
20260906175217 59 225 4.0 11.0 0.00 0.00 0.00 66 1014.2
20260906174718 59 230 5.0 9.0 0.00 0.00 0.00 67 1014.2
20260906174217 59 233 4.0 14.0 0.00 0.00 0.00 68 1014.2
20260906173503 60 232 3.0 14.0 0.00 0.00 0.00 65 1014.3
20260906173217 60 235 3.0 9.0 0.00 0.00 0.00 64 1014.2
20260906172503 60 243 3.0 6.0 0.00 0.00 0.00 60 1014.0
20260906172003 61 237 3.0 6.0 0.00 0.00 0.00 60 1014.1
20260906171503 61 229 3.0 8.0 0.00 0.00 0.00 62 1014.1
20260906171003 61 229 2.0 8.0 0.00 0.00 0.00 62 1014.1
20260906170718 61 225 2.0 7.0 0.00 0.00 0.00 64 1014.1
20260906170003 61 227 1.0 5.0 0.00 0.00 0.00 66 1014.2
20260906165503 61 232 0.0 5.0 0.00 0.00 0.00 65 1014.1
20260906165005 60 0 0.0 2.0 0.00 0.00 0.00 68 1014.1
20260906164503 60 0 0.0 2.0 0.00 0.00 0.00 66 1014.1
20260906164216 59 0 0.0 2.0 0.00 0.00 0.00 66 1014.0
20260906163503 58 0 0.0 1.0 0.00 0.00 0.00 69 1014.0
20260906163003 57 0 0.0 1.0 0.00 0.00 0.00 72 1013.9
20260906162503 56 0 0.0 1.0 0.00 0.00 0.00 71 1013.9
20260906162003 56 0 0.0 1.0 0.00 0.00 0.00 74 1013.9
20260906161717 56 0 0.0 1.0 0.00 0.00 0.00 74 1013.9
20260906161218 56 195 0.0 1.0 0.00 0.00 0.00 75 1013.9
20260906160503 55 182 1.0 3.0 0.00 0.00 0.00 75 1013.8
20260906160003 55 178 0.0 3.0 0.00 0.00 0.00 76 1013.9
20260906155503 55 0 2.0 2.0 0.00 0.00 0.00 77 1013.9
20260906155003 54 0 1.0 1.0 0.00 0.00 0.00 79 1013.8
20260906154503 54 0 1.0 1.0 0.00 0.00 0.00 80 1013.8
20260906154003 54 0 1.0 1.0 0.00 0.00 0.00 81 1013.8
20260906153503 53 0 2.0 2.0 0.00 0.00 0.00 82 1013.8
20260906153003 52 0 2.0 2.0 0.00 0.00 0.00 82 1013.9
20260906152717 52 0 2.0 2.0 0.00 0.00 0.00 82 1013.9
20260906152003 51 0 2.0 2.0 0.00 0.00 0.00 83 1014.0
20260906151717 51 0 2.0 2.0 0.00 0.00 0.00 84 1014.0
20260906151003 50 0 3.0 3.0 0.00 0.00 0.00 84 1014.1
20260906150503 49 0 3.0 3.0 0.00 0.00 0.00 84 1014.1
20260906150218 49 0 3.0 3.0 0.00 0.00 0.00 84 1014.1
20260906145503 48 0 1.0 1.0 0.00 0.00 0.00 86 1014.1
20260906145003 48 0 1.0 1.0 0.00 0.00 0.00 86 1014.1
20260906144717 47 0 1.0 1.0 0.00 0.00 0.00 86 1014.1
20260906144003 47 0 0.0 0.0 0.00 0.00 0.00 86 1014.1
20260906143503 47 0 1.0 1.0 0.00 0.00 0.00 87 1014.1
20260906143003 46 0 1.0 1.0 0.00 0.00 0.00 87 1014.1
20260906142503 46 0 1.0 1.0 0.00 0.00 0.00 87 1014.1
20260906142003 45 0 1.0 1.0 0.00 0.00 0.00 87 1014.2
20260906141717 45 0 1.0 1.0 0.00 0.00 0.00 88 1014.2
20260906141003 44 0 1.0 1.0 0.00 0.00 0.00 91 1014.2
20260906140503 44 0 1.0 1.0 0.00 0.00 0.00 91 1014.1
20260906140003 43 82 2.0 2.0 0.00 0.00 0.00 91 1014.1
20260906135503 43 82 2.0 2.0 0.00 0.00 0.00 92 1014.1
20260906135003 42 0 1.0 1.0 0.00 0.00 0.00 92 1014.2
20260906134716 41 0 0.0 0.0 0.00 0.00 0.00 89 1014.2
20260906134003 41 0 2.0 2.0 0.00 0.00 0.00 89 1014.1
20260906133503 41 0 2.0 2.0 0.00 0.00 0.00 89 1013.9
20260906133003 41 0 2.0 2.0 0.00 0.00 0.00 89 1014.1
20260906132504 41 0 2.0 2.0 0.00 0.00 0.00 89 1014.1
20260906132217 41 0 2.0 2.0 0.00 0.00 0.00 89 1014.1
20260906131503 41 0 2.0 2.0 0.00 0.00 0.00 89 1014.2
20260906131003 41 0 2.0 2.0 0.00 0.00 0.00 89 1014.2
20260906130503 41 0 2.0 2.0 0.00 0.00 0.00 89 1014.3
20260906130003 41 0 2.0 2.0 0.00 0.00 0.00 89 1014.3
20260906125503 41 0 2.0 2.0 0.00 0.00 0.00 89 1014.3
20260906125003 41 0 2.0 2.0 0.00 0.00 0.00 89 1014.3
20260906124503 41 0 2.0 2.0 0.00 0.00 0.00 89 1014.3
20260906124003 41 0 2.0 2.0 0.00 0.00 0.00 89 1014.3
20260906123503 41 0 2.0 2.0 0.00 0.00 0.00 89 1014.3
20260906123003 41 0 2.0 2.0 0.00 0.00 0.00 89 1014.2
20260906122503 41 0 2.0 2.0 0.00 0.00 0.00 89 1014.4
20260906122003 41 0 2.0 2.0 0.00 0.00 0.00 89 1014.4
20260906121503 41 0 2.0 2.0 0.00 0.00 0.00 89 1014.5
20260906121003 41 0 1.0 1.0 0.00 0.00 0.00 89 1014.3
20260906120503 42 0 2.0 2.0 0.00 0.00 0.00 90 1014.3
20260906120003 42 0 2.0 2.0 0.00 0.00 0.00 90 1014.3
20260906115718 42 0 2.0 2.0 0.00 0.00 0.00 89 1014.3
20260906115003 42 0 1.0 1.0 0.00 0.00 0.00 90 1014.3
20260906114503 42 0 1.0 1.0 0.00 0.00 0.00 90 1014.4
20260906114003 42 0 1.0 1.0 0.00 0.00 0.00 90 1014.5
20260906113503 42 0 1.0 1.0 0.00 0.00 0.00 89 1014.5
20260906113003 42 0 1.0 1.0 0.00 0.00 0.00 90 1014.5
20260906112503 42 0 1.0 1.0 0.00 0.00 0.00 90 1014.6
20260906112216 42 0 2.0 2.0 0.00 0.00 0.00 90 1014.7
20260906111717 42 0 2.0 2.0 0.00 0.00 0.00 90 1014.7
20260906111003 42 0 2.0 2.0 0.00 0.00 0.00 89 1014.7
20260906110503 43 0 2.0 2.0 0.00 0.00 0.00 91 1014.7
20260906110003 42 0 0.0 0.0 0.00 0.00 0.00 91 1014.7
20260906105503 42 0 0.0 0.0 0.00 0.00 0.00 91 1014.7
20260906105003 42 0 1.0 1.0 0.00 0.00 0.00 91 1014.8
20260906104503 42 0 1.0 1.0 0.00 0.00 0.00 91 1014.9
20260906104003 41 0 1.0 1.0 0.00 0.00 0.00 92 1014.8
20260906103717 41 0 1.0 1.0 0.00 0.00 0.00 92 1014.9
20260906103003 41 0 0.0 0.0 0.00 0.00 0.00 91 1014.9
20260906102503 41 0 0.0 0.0 0.00 0.00 0.00 91 1014.8
20260906102003 41 0 1.0 1.0 0.00 0.00 0.00 91 1014.9
20260906101503 41 0 2.0 2.0 0.00 0.00 0.00 91 1014.9
20260906101005 40 0 2.0 2.0 0.00 0.00 0.00 91 1014.9
20260906100503 40 0 1.0 1.0 0.00 0.00 0.00 90 1014.9
20260906100218 40 0 1.0 1.0 0.00 0.00 0.00 89 1014.9
20260906095503 41 0 0.0 0.0 0.00 0.00 0.00 91 1014.8
20260906095003 41 0 0.0 0.0 0.00 0.00 0.00 91 1014.9
20260906094503 41 0 0.0 0.0 0.00 0.00 0.00 90 1014.9
20260906094003 41 0 0.0 0.0 0.00 0.00 0.00 90 1015.0
20260906093503 41 0 0.0 0.0 0.00 0.00 0.00 90 1015.1
20260906093003 41 0 0.0 0.0 0.00 0.00 0.00 89 1015.1
20260906092503 41 0 1.0 1.0 0.00 0.00 0.00 88 1015.3
20260906092003 42 0 1.0 1.0 0.00 0.00 0.00 87 1015.3
20260906091503 43 0 0.0 0.0 0.00 0.00 0.00 90 1015.3
20260906091218 43 0 0.0 0.0 0.00 0.00 0.00 89 1015.3
20260906090503 43 0 0.0 0.0 0.00 0.00 0.00 89 1015.3
20260906090003 43 0 0.0 0.0 0.00 0.00 0.00 88 1015.4
20260906085503 43 0 0.0 0.0 0.00 0.00 0.00 88 1015.4
20260906085003 43 0 0.0 0.0 0.00 0.00 0.00 88 1015.4
20260906084503 43 0 0.0 0.0 0.00 0.00 0.00 89 1015.6
20260906084217 43 0 0.0 0.0 0.00 0.00 0.00 88 1015.6
20260906083503 43 0 0.0 0.0 0.00 0.00 0.00 86 1015.6
20260906083003 43 0 0.0 0.0 0.00 0.00 0.00 86 1015.6
20260906082503 44 0 0.0 0.0 0.00 0.00 0.00 85 1015.6
20260906082217 44 0 1.0 1.0 0.00 0.00 0.00 84 1015.6
20260906081503 45 0 1.0 1.0 0.00 0.00 0.00 85 1015.7
20260906081003 46 0 0.0 0.0 0.00 0.00 0.00 86 1015.7
20260906080718 46 0 0.0 0.0 0.00 0.00 0.00 86 1015.8
20260906080003 46 0 0.0 0.0 0.00 0.00 0.00 87 1015.9
20260906075503 46 0 0.0 0.0 0.00 0.00 0.00 87 1016.0
20260906075003 45 152 0.0 1.0 0.00 0.00 0.00 86 1016.0
20260906074503 45 157 0.0 2.0 0.00 0.00 0.00 86 1016.1
20260906074003 46 159 0.0 2.0 0.00 0.00 0.00 85 1016.0
20260906073503 46 0 2.0 2.0 0.00 0.00 0.00 84 1015.8
20260906073003 47 0 2.0 2.0 0.00 0.00 0.00 83 1015.7
20260906072718 47 0 2.0 2.0 0.00 0.00 0.00 83 1015.7
20260906072003 47 0 1.0 1.0 0.00 0.00 0.00 84 1015.7
20260906071503 48 0 1.0 1.0 0.00 0.00 0.00 83 1015.7
20260906071003 48 0 1.0 1.0 0.00 0.00 0.00 83 1015.9
20260906070503 48 0 1.0 1.0 0.00 0.00 0.00 85 1016.1
20260906070005 47 0 1.0 1.0 0.00 0.00 0.00 86 1016.1
20260906065503 46 0 1.0 1.0 0.00 0.00 0.00 86 1016.1
20260906065003 46 0 1.0 1.0 0.00 0.00 0.00 87 1016.2
20260906064503 46 0 0.0 0.0 0.00 0.00 0.00 86 1016.4
20260906064003 46 0 0.0 1.0 0.00 0.00 0.00 87 1016.5
20260906063718 46 0 0.0 1.0 0.00 0.00 0.00 86 1016.5
20260906063003 46 0 0.0 0.0 0.00 0.00 0.00 85 1016.5
20260906062503 46 0 0.0 0.0 0.00 0.00 0.00 85 1016.5
20260906062003 46 0 0.0 0.0 0.00 0.00 0.00 85 1016.5
20260906061503 46 0 0.0 0.0 0.00 0.00 0.00 85 1016.4
20260906061003 46 0 0.0 0.0 0.00 0.00 0.00 84 1016.5
20260906060503 47 0 0.0 0.0 0.00 0.00 0.00 85 1016.5
20260906060003 46 0 0.0 1.0 0.00 0.00 0.00 85 1016.6
20260906055503 46 0 0.0 1.0 0.00 0.00 0.00 83 1016.6
20260906055003 47 0 0.0 0.0 0.00 0.00 0.00 83 1016.6
20260906054503 47 0 0.0 0.0 0.00 0.00 0.00 84 1016.7
20260906054003 48 0 0.0 0.0 0.00 0.00 0.00 84 1016.8
20260906053503 48 0 0.0 0.0 0.00 0.00 0.00 84 1016.9
20260906053003 48 0 0.0 0.0 0.00 0.00 0.00 83 1016.9
20260906052717 48 0 0.0 1.0 0.00 0.00 0.00 83 1016.9
20260906052003 48 0 0.0 1.0 0.00 0.00 0.00 83 1017.0
20260906051503 48 0 0.0 1.0 0.00 0.00 0.00 82 1016.9
20260906051003 49 0 0.0 1.0 0.00 0.00 0.00 82 1017.0
20260906050717 49 0 0.0 1.0 0.00 0.00 0.00 81 1017.0
20260906050003 50 0 0.0 0.0 0.00 0.00 0.00 80 1017.1
20260906045503 50 0 0.0 1.0 0.00 0.00 0.00 80 1017.1
20260906045003 51 0 0.0 1.0 0.00 0.00 0.00 78 1017.1
20260906044503 52 235 0.0 1.0 0.00 0.00 0.00 75 1017.1
20260906044003 53 238 1.0 2.0 0.00 0.00 0.00 73 1017.1
20260906043717 53 240 1.0 2.0 0.00 0.00 0.00 73 1017.0
20260906043003 53 224 1.0 3.0 0.00 0.00 0.00 73 1017.1
20260906042503 52 214 1.0 2.0 0.00 0.00 0.00 74 1017.1
20260906042003 52 215 1.0 2.0 0.00 0.00 0.00 74 1017.1
20260906041503 52 203 1.0 2.0 0.00 0.00 0.00 75 1017.1
20260906041003 51 188 1.0 2.0 0.00 0.00 0.00 76 1017.1
20260906040503 51 203 1.0 3.0 0.00 0.00 0.00 75 1017.1
20260906040003 52 215 1.0 3.0 0.00 0.00 0.00 75 1017.1
20260906035717 52 215 1.0 2.0 0.00 0.00 0.00 75 1017.1
20260906035003 52 217 1.0 3.0 0.00 0.00 0.00 74 1017.1
20260906034503 52 218 1.0 3.0 0.00 0.00 0.00 74 1017.0
20260906034003 52 224 1.0 2.0 0.00 0.00 0.00 75 1017.1
20260906033503 51 191 1.0 2.0 0.00 0.00 0.00 78 1017.0
20260906033003 50 153 1.0 2.0 0.00 0.00 0.00 80 1017.0
20260906032503 50 155 0.0 1.0 0.00 0.00 0.00 80 1017.1
20260906032003 49 0 1.0 1.0 0.00 0.00 0.00 82 1017.0
20260906031503 49 0 1.0 1.0 0.00 0.00 0.00 82 1017.0
20260906031003 49 0 1.0 1.0 0.00 0.00 0.00 81 1016.9
20260906030518 49 0 1.0 1.0 0.00 0.00 0.00 80 1017.0
20260906030003 50 0 1.0 1.0 0.00 0.00 0.00 80 1016.9
20260906025503 50 0 1.0 1.0 0.00 0.00 0.00 79 1016.9
20260906025003 51 0 1.0 1.0 0.00 0.00 0.00 78 1016.9
20260906024503 51 0 0.0 0.0 0.00 0.00 0.00 77 1016.8
20260906024003 51 0 1.0 1.0 0.00 0.00 0.00 75 1016.8
20260906023503 52 0 1.0 1.0 0.00 0.00 0.00 75 1016.8
20260906023003 53 0 0.0 0.0 0.00 0.00 0.00 74 1016.8
20260906022503 53 0 0.0 1.0 0.00 0.00 0.00 73 1016.8
20260906022003 54 0 0.0 1.0 0.00 0.00 0.00 71 1016.7
20260906021503 55 0 0.0 1.0 0.00 0.00 0.00 69 1016.8
20260906021003 56 0 0.0 1.0 0.00 0.00 0.00 68 1016.7
20260906020503 57 0 0.0 0.0 0.00 0.00 0.00 67 1016.8
20260906020003 57 0 0.0 1.0 0.00 0.00 0.00 67 1016.8
20260906015503 57 0 0.0 1.0 0.00 0.00 0.00 65 1016.8
20260906015003 58 0 0.0 1.0 0.00 0.00 0.00 65 1016.8
20260906014718 58 0 0.0 4.0 0.00 0.00 0.00 64 1016.9
20260906014003 58 0 0.0 4.0 0.00 0.00 0.00 63 1016.9
20260906013718 59 0 0.0 2.0 0.00 0.00 0.00 63 1016.9
20260906013217 59 0 0.0 2.0 0.00 0.00 0.00 62 1016.8
20260906012503 60 0 0.0 2.0 0.00 0.00 0.00 62 1016.8
20260906012217 60 0 0.0 2.0 0.00 0.00 0.00 60 1016.8
20260906011503 61 275 1.0 3.0 0.00 0.00 0.00 58 1016.7
20260906011003 61 291 1.0 4.0 0.00 0.00 0.00 57 1016.7
20260906010503 62 280 1.0 4.0 0.00 0.00 0.00 57 1016.7
20260906010217 62 268 1.0 4.0 0.00 0.00 0.00 57 1016.8
20260906005503 62 258 1.0 3.0 0.00 0.00 0.00 59 1016.7
20260906005003 61 258 1.0 4.0 0.00 0.00 0.00 60 1016.7
20260906004503 60 243 1.0 4.0 0.00 0.00 0.00 62 1016.8
20260906004003 60 233 1.0 5.0 0.00 0.00 0.00 64 1016.8
20260906003503 59 248 2.0 6.0 0.00 0.00 0.00 64 1016.8
20260906003003 59 262 2.0 7.0 0.00 0.00 0.00 64 1016.8
20260906002503 59 269 2.0 9.0 0.00 0.00 0.00 63 1016.9
20260906002003 59 263 2.0 9.0 0.00 0.00 0.00 64 1016.9
20260906001717 59 246 2.0 9.0 0.00 0.00 0.00 63 1016.8
20260906001003 59 240 2.0 8.0 0.00 0.00 0.00 64 1016.9
20260906000503 59 232 3.0 8.0 0.00 0.00 0.00 64 1016.8
20260906000003 59 239 3.0 10.0 0.00 0.00 0.00 64 1016.8
20260905235503 60 241 3.0 10.0 0.00 0.00 0.00 62 1016.9
20260905235003 60 233 4.0 12.0 0.00 0.00 0.00 63 1016.9
20260905234503 60 239 4.0 12.0 0.00 0.00 0.00 63 1016.9
20260905234003 61 236 4.0 9.0 0.00 0.00 0.00 62 1016.9
20260905233503 61 238 4.0 13.0 0.00 0.00 0.00 64 1016.9
20260905233003 61 242 4.0 13.0 0.00 0.00 0.00 64 1016.9
20260905232503 60 235 5.0 13.0 0.00 0.00 0.00 66 1016.9
20260905232003 60 232 6.0 16.0 0.00 0.00 0.00 65 1016.9
20260905231717 60 235 6.0 16.0 0.00 0.00 0.00 65 1016.9
20260905231003 60 230 7.0 16.0 0.00 0.00 0.00 64 1017.0
20260905230503 61 227 7.0 16.0 0.00 0.00 0.00 63 1017.0
20260905230003 60 225 7.0 16.0 0.00 0.00 0.00 65 1017.0
20260905225503 61 223 7.0 16.0 0.00 0.00 0.00 64 1017.0
20260905225003 62 222 6.0 16.0 0.00 0.00 0.00 61 1017.0
20260905224503 63 225 6.0 16.0 0.00 0.00 0.00 58 1016.9
20260905224003 64 226 6.0 14.0 0.00 0.00 0.00 54 1016.8
20260905223503 65 229 5.0 16.0 0.00 0.00 0.00 52 1016.8
20260905223003 66 235 3.0 16.0 0.00 0.00 0.00 51 1016.8
20260905222503 66 232 2.0 8.0 0.00 0.00 0.00 50 1016.7
20260905222003 67 226 1.0 6.0 0.00 0.00 0.00 47 1016.6
20260905221503 66 234 1.0 4.0 0.00 0.00 0.00 46 1016.5
20260905221003 66 236 1.0 4.0 0.00 0.00 0.00 45 1016.4
20260905220503 66 232 0.0 4.0 0.00 0.00 0.00 45 1016.5
20260905220003 66 0 0.0 3.0 0.00 0.00 0.00 47 1016.5
20260905215503 66 0 0.0 1.0 0.00 0.00 0.00 46 1016.6
20260905215003 66 0 0.0 1.0 0.00 0.00 0.00 47 1016.6
20260905214503 66 0 0.0 2.0 0.00 0.00 0.00 49 1016.7
20260905214003 66 0 0.0 2.0 0.00 0.00 0.00 47 1016.6
20260905213718 67 214 0.0 2.0 0.00 0.00 0.00 45 1016.7
20260905213003 67 24 1.0 1.0 0.00 0.00 0.00 45 1016.6
20260905212503 67 327 1.0 3.0 0.00 0.00 0.00 45 1016.6
20260905212003 67 323 0.0 3.0 0.00 0.00 0.00 44 1016.5
20260905211503 68 0 0.0 4.0 0.00 0.00 0.00 44 1016.5
20260905211003 68 0 0.0 4.0 0.00 0.00 0.00 45 1016.5
20260905210503 68 350 0.0 3.0 0.00 0.00 0.00 44 1016.4
20260905210003 68 6 0.0 3.0 0.00 0.00 0.00 43 1016.5
20260905205503 68 222 1.0 3.0 0.00 0.00 0.00 42 1016.5
20260905205003 68 248 1.0 4.0 0.00 0.00 0.00 42 1016.5
20260905204503 68 347 1.0 4.0 0.00 0.00 0.00 42 1016.4
20260905204003 69 329 0.0 4.0 0.00 0.00 0.00 43 1016.4
20260905203503 69 336 1.0 1.0 0.00 0.00 0.00 41 1016.4
20260905203003 69 340 1.0 5.0 0.00 0.00 0.00 43 1016.4
20260905202503 69 341 1.0 5.0 0.00 0.00 0.00 43 1016.4
20260905202003 69 360 0.0 4.0 0.00 0.00 0.00 43 1016.5
20260905201503 69 60 1.0 4.0 0.00 0.00 0.00 43 1016.5
20260905201003 68 65 1.0 4.0 0.00 0.00 0.00 43 1016.5
20260905200718 68 58 1.0 5.0 0.00 0.00 0.00 43 1016.6
20260905200003 70 31 0.0 5.0 0.00 0.00 0.00 42 1016.8
20260905195503 70 0 0.0 4.0 0.00 0.00 0.00 44 1016.8
20260905195003 70 0 0.0 2.0 0.00 0.00 0.00 45 1016.9
20260905194503 69 83 0.0 3.0 0.00 0.00 0.00 47 1017.0
20260905194003 69 78 1.0 3.0 0.00 0.00 0.00 49 1017.1
20260905193503 69 52 1.0 4.0 0.00 0.00 0.00 50 1017.1
20260905193003 68 71 1.0 5.0 0.00 0.00 0.00 49 1017.0
20260905192718 68 75 1.0 5.0 0.00 0.00 0.00 48 1017.0
20260905192216 68 82 1.0 4.0 0.00 0.00 0.00 50 1017.1
20260905191503 67 48 1.0 4.0 0.00 0.00 0.00 50 1017.3
20260905191003 67 358 1.0 6.0 0.00 0.00 0.00 51 1017.3
20260905190505 66 349 1.0 6.0 0.00 0.00 0.00 50 1017.3